When you browse on this site, cookies collect data to enhance your experience and personalize the content and advertising you see.
Visit our Privacy Policy to learn more. By continuing to use the site, you agree to this use of cookies and data.
  • In Hungary
  • List of Countries
  • For 7 days
  • Water Temperature
  • Satellite Maps
  • Weather Map
  • News
  • Weather Widgets
  • user-avatar
    Login

    Hourly Weather Skrzany

    Today, 16 January, Wednesday

    Time Temperature Precipitation Wind Pressure Humidity
    00:00 +4°C° 0.2 mm 7 mps 748 mmHg 90%
    01:00 +3°C° 0 mm 5 mps 748 mmHg 91%
    02:00 +3°C° 0.8 mm 5 mps 748 mmHg 92%
    03:00 +3°C° 0.8 mm 5 mps 748 mmHg 93%
    04:00 +4°C° 0.8 mm 4 mps 748 mmHg 94%
    05:00 +5°C° 0.1 mm 5 mps 749 mmHg 91%
    06:00 +4°C° 0.1 mm 6 mps 749 mmHg 88%
    07:00 +5°C° 0 mm 5 mps 749 mmHg 89%
    08:00 +4°C° 0 mm 6 mps 749 mmHg 87%
    09:00 +4°C° 0 mm 6 mps 749 mmHg 85%
    10:00 +4°C° 0 mm 7 mps 749 mmHg 83%
    11:00 +4°C° 0 mm 7 mps 749 mmHg 83%
    12:00 +4°C° 0 mm 6 mps 749 mmHg 83%
    13:00 +4°C° 0 mm 6 mps 749 mmHg 85%
    14:00 +4°C° 0 mm 6 mps 749 mmHg 85%
    15:00 +4°C° 0 mm 6 mps 748 mmHg 85%
    16:00 +4°C° 0 mm 6 mps 748 mmHg 85%
    17:00 +4°C° 0 mm 6 mps 748 mmHg 84%
    18:00 +4°C° 0 mm 7 mps 748 mmHg 83%
    19:00 +4°C° 0 mm 7 mps 747 mmHg 82%
    20:00 +3°C° 0.1 mm 7 mps 747 mmHg 82%
    21:00 +3°C° 0.1 mm 7 mps 746 mmHg 81%
    22:00 +2°C° 0.1 mm 7 mps 746 mmHg 81%
    23:00 +2°C° 0.1 mm 6 mps 745 mmHg 81%

    Tomorrow, 17 January, Thursday

    Time Temperature Precipitation Wind Pressure Humidity
    00:00 +2°C° 0.1 mm 6 mps 745 mmHg 82%
    01:00 +1°C° 0.1 mm 6 mps 744 mmHg 82%
    02:00 +1°C° 0 mm 6 mps 744 mmHg 82%
    03:00 0°C° 0 mm 7 mps 743 mmHg 81%
    04:00 0°C° 0 mm 7 mps 743 mmHg 80%
    05:00 0°C° 0.1 mm 7 mps 742 mmHg 80%
    06:00 0°C° 0.1 mm 7 mps 742 mmHg 81%
    07:00 +2°C° 0.1 mm 7 mps 742 mmHg 81%
    08:00 +2°C° 0.1 mm 7 mps 742 mmHg 82%
    09:00 +2°C° 0.1 mm 7 mps 743 mmHg 82%
    10:00 +3°C° 0.1 mm 7 mps 743 mmHg 82%
    11:00 +3°C° 0 mm 7 mps 743 mmHg 77%
    12:00 +4°C° 0 mm 7 mps 743 mmHg 71%
    13:00 +4°C° 0 mm 8 mps 743 mmHg 66%
    14:00 +4°C° 0 mm 7 mps 743 mmHg 67%
    15:00 +3°C° 0 mm 6 mps 743 mmHg 69%
    16:00 +3°C° 0 mm 5 mps 743 mmHg 70%
    17:00 +3°C° 0 mm 5 mps 743 mmHg 73%
    18:00 +3°C° 0 mm 4 mps 743 mmHg 75%
    19:00 +3°C° 0 mm 4 mps 743 mmHg 78%
    20:00 +3°C° 0.2 mm 4 mps 744 mmHg 78%
    21:00 +1°C° 0.2 mm 5 mps 744 mmHg 77%
    22:00 +1°C° 0.2 mm 5 mps 744 mmHg 77%
    23:00 +1°C° 0.1 mm 6 mps 745 mmHg 78%

    Day after tomorrow, 18 January, Friday

    Time Temperature Precipitation Wind Pressure Humidity
    00:00 -1°C° 0.1 mm 6 mps 745 mmHg 79%
    01:00 -1°C° 0.1 mm 7 mps 746 mmHg 80%
    02:00 -2°C° 0.1 mm 7 mps 747 mmHg 81%
    03:00 -2°C° 0.1 mm 7 mps 747 mmHg 81%
    04:00 -2°C° 0.1 mm 8 mps 748 mmHg 82%
    05:00 -3°C° 0.2 mm 7 mps 749 mmHg 82%
    06:00 -3°C° 0.2 mm 6 mps 750 mmHg 81%
    07:00 -2°C° 0.2 mm 5 mps 751 mmHg 80%
    08:00 -2°C° 0 mm 5 mps 753 mmHg 78%
    09:00 -2°C° 0 mm 5 mps 754 mmHg 77%
    10:00 -2°C° 0 mm 5 mps 755 mmHg 75%
    11:00 -2°C° 0 mm 5 mps 756 mmHg 73%
    12:00 -1°C° 0 mm 5 mps 756 mmHg 71%
    13:00 -1°C° 0 mm 5 mps 757 mmHg 69%
    14:00 -1°C° 0 mm 4 mps 757 mmHg 71%
    15:00 -2°C° 0 mm 4 mps 757 mmHg 74%
    16:00 -1°C° 0 mm 3 mps 758 mmHg 77%
    17:00 -1°C° 0 mm 3 mps 758 mmHg 76%
    18:00 -3°C° 0 mm 4 mps 758 mmHg 76%
    19:00 -3°C° 0 mm 4 mps 758 mmHg 75%
    20:00 -3°C° 0 mm 4 mps 759 mmHg 77%
    21:00 -3°C° 0 mm 4 mps 759 mmHg 78%
    22:00 -2°C° 0 mm 3 mps 759 mmHg 80%
    23:00 -2°C° 0 mm 3 mps 759 mmHg 82%

    19 January, Saturday

    Time Temperature Precipitation Wind Pressure Humidity
    00:00 -2°C° 0 mm 3 mps 759 mmHg 85%
    01:00 -2°C° 0 mm 3 mps 759 mmHg 88%
    02:00 -4°C° 0 mm 3 mps 759 mmHg 89%
    03:00 -3°C° 0 mm 2 mps 759 mmHg 89%
    04:00 -3°C° 0 mm 2 mps 759 mmHg 90%
    05:00 -3°C° 0 mm 2 mps 760 mmHg 90%
    06:00 -3°C° 0 mm 2 mps 760 mmHg 90%
    07:00 -3°C° 0 mm 2 mps 760 mmHg 90%
    08:00 -2°C° 0 mm 2 mps 760 mmHg 88%
    09:00 -2°C° 0 mm 2 mps 760 mmHg 86%
    10:00 -1°C° 0 mm 2 mps 760 mmHg 84%
    11:00 -1°C° 0 mm 2 mps 760 mmHg 82%
    12:00 +1°C° 0 mm 2 mps 760 mmHg 79%
    13:00 +2°C° 0 mm 2 mps 760 mmHg 76%
    14:00 +2°C° 0 mm 1 mps 759 mmHg 79%
    15:00 +1°C° 0 mm 1 mps 759 mmHg 82%
    16:00 +1°C° 0 mm 1 mps 759 mmHg 85%
    17:00 -1°C° 0 mm 0 mps 759 mmHg 86%
    18:00 -1°C° 0 mm 0 mps 759 mmHg 87%
    19:00 -1°C° 0 mm 0 mps 759 mmHg 87%
    20:00 -1°C° 0 mm 0 mps 759 mmHg 88%
    21:00 0°C° 0 mm 1 mps 759 mmHg 88%
    22:00 0°C° 0 mm 1 mps 759 mmHg 88%
    23:00 -1°C° 0 mm 1 mps 759 mmHg 88%

    20 January, Sunday

    Time Temperature Precipitation Wind Pressure Humidity
    00:00 -1°C° 0 mm 1 mps 759 mmHg 88%
    01:00 -1°C° 0 mm 1 mps 759 mmHg 87%
    02:00 -1°C° 0 mm 1 mps 759 mmHg 87%
    03:00 -1°C° 0 mm 1 mps 759 mmHg 86%
    04:00 -2°C° 0 mm 0 mps 758 mmHg 85%
    05:00 -2°C° 0 mm 0 mps 758 mmHg 85%
    06:00 -2°C° 0 mm 0 mps 759 mmHg 85%
    07:00 -2°C° 0 mm 0 mps 759 mmHg 84%
    08:00 -2°C° 0 mm 0 mps 759 mmHg 82%
    09:00 -1°C° 0 mm 0 mps 759 mmHg 79%
    10:00 -1°C° 0 mm 0 mps 759 mmHg 77%
    11:00 0°C° 0 mm 0 mps 759 mmHg 74%
    12:00 0°C° 0 mm 0 mps 759 mmHg 71%
    13:00 +2°C° 0 mm 1 mps 759 mmHg 68%
    14:00 +1°C° 0 mm 1 mps 759 mmHg 73%
    15:00 +1°C° 0 mm 1 mps 759 mmHg 78%
    16:00 0°C° 0 mm 1 mps 759 mmHg 83%
    17:00 0°C° 0 mm 1 mps 759 mmHg 85%
    18:00 -3°C° 0 mm 2 mps 760 mmHg 88%
    19:00 -3°C° 0 mm 2 mps 760 mmHg 91%
    20:00 -3°C° 0 mm 2 mps 760 mmHg 90%
    21:00 -3°C° 0 mm 2 mps 760 mmHg 90%
    22:00 -4°C° 0 mm 3 mps 761 mmHg 90%
    23:00 -4°C° 0 mm 3 mps 761 mmHg 91%

    21 January, Monday

    Time Temperature Precipitation Wind Pressure Humidity
    00:00 -4°C° 0 mm 3 mps 761 mmHg 92%
    01:00 -4°C° 0 mm 3 mps 762 mmHg 93%
    02:00 -4°C° 0 mm 3 mps 762 mmHg 90%
    03:00 -4°C° 0 mm 2 mps 762 mmHg 86%
    04:00 -4°C° 0 mm 2 mps 762 mmHg 82%
    05:00 -4°C° 0 mm 2 mps 763 mmHg 83%
    06:00 -4°C° 0 mm 2 mps 763 mmHg 84%
    07:00 -5°C° 0 mm 2 mps 764 mmHg 85%
    08:00 -2°C° 0 mm 1 mps 764 mmHg 82%
    09:00 -2°C° 0 mm 1 mps 765 mmHg 78%
    10:00 -1°C° 0 mm 1 mps 765 mmHg 75%
    11:00 0°C° 0 mm 1 mps 765 mmHg 69%
    12:00 0°C° 0 mm 1 mps 765 mmHg 64%
    13:00 +1°C° 0 mm 1 mps 765 mmHg 58%
    14:00 0°C° 0 mm 1 mps 765 mmHg 61%
    15:00 0°C° 0 mm 1 mps 765 mmHg 64%
    16:00 -1°C° 0 mm 1 mps 765 mmHg 67%
    17:00 -1°C° 0 mm 1 mps 765 mmHg 69%
    18:00 -2°C° 0 mm 1 mps 765 mmHg 71%
    19:00 -2°C° 0 mm 1 mps 765 mmHg 73%
    20:00 -2°C° 0 mm 1 mps 765 mmHg 74%
    21:00 -2°C° 0 mm 1 mps 765 mmHg 75%
    22:00 -4°C° 0 mm 2 mps 765 mmHg 76%
    23:00 -5°C° 0 mm 2 mps 764 mmHg 78%
    Show more